| time (UTC) | temp F | wind direction | speed MPH | gust MPH | rain 1hr in | rain 24hr in | rain mn in | humidity % | barometer mb |
| 20260505052517 | 47 | 225 | 3.0 | 7.0 | 0.01 | 2.08 | 0.89 | 94 | 1009.6 |
| 20260505051517 | 46 | 203 | 6.0 | 9.0 | 0.02 | 2.08 | 0.89 | 95 | 1009.6 |
| 20260505050517 | 46 | 225 | 7.0 | 11.0 | 0.03 | 2.08 | 0.89 | 95 | 1009.7 |
| 20260505041517 | 46 | 180 | 4.0 | 8.0 | 0.09 | 2.06 | 0.87 | 97 | 1010.7 |
| 20260505040517 | 46 | 225 | 6.0 | 13.0 | 0.09 | 2.05 | 0.86 | 97 | 1010.6 |
| 20260505035517 | 46 | 225 | 5.0 | 8.0 | 0.09 | 2.04 | 0.85 | 97 | 1010.7 |
| 20260505034517 | 46 | 203 | 3.0 | 5.0 | 0.11 | 2.02 | 0.83 | 97 | 1011.3 |
| 20260505033517 | 46 | 203 | 2.0 | 3.0 | 0.12 | 1.99 | 0.80 | 97 | 1011.4 |
| 20260505032517 | 46 | 0.0 | 0.0 | 0.13 | 1.98 | 0.79 | 97 | 1011.3 | |
| 20260505031517 | 46 | 0.0 | 1.0 | 0.17 | 1.97 | 0.78 | 97 | 1011.3 | |
| 20260505030517 | 46 | 0.0 | 2.0 | 0.17 | 1.95 | 0.76 | 97 | 1011.2 | |
| 20260505025517 | 46 | 0.0 | 1.0 | 0.20 | 1.94 | 0.76 | 97 | 1011.2 | |
| 20260505024517 | 46 | 0.0 | 2.0 | 0.19 | 1.91 | 0.72 | 97 | 1011.3 | |
| 20260505023517 | 46 | 338 | 1.0 | 2.0 | 0.17 | 1.87 | 0.69 | 97 | 1011.6 |
| 20260505022517 | 46 | 0.0 | 1.0 | 0.17 | 1.84 | 0.65 | 97 | 1011.6 | |
| 20260505021517 | 46 | 0.0 | 2.0 | 0.15 | 1.80 | 0.62 | 97 | 1011.6 | |
| 20260505020517 | 46 | 0.0 | 0.0 | 0.15 | 1.78 | 0.59 | 97 | 1011.6 | |
| 20260505015517 | 46 | 0.0 | 2.0 | 0.14 | 1.75 | 0.56 | 97 | 1011.5 | |
| 20260505014517 | 46 | 0.0 | 2.0 | 0.13 | 1.72 | 0.54 | 96 | 1011.5 | |
| 20260505013517 | 47 | 68 | 2.0 | 4.0 | 0.14 | 1.70 | 0.51 | 96 | 1011.3 |
| 20260505012517 | 47 | 338 | 3.0 | 5.0 | 0.17 | 1.68 | 0.49 | 96 | 1011.5 |
| 20260505011517 | 47 | 90 | 2.0 | 4.0 | 0.21 | 1.65 | 0.46 | 96 | 1011.7 |
| 20260505010517 | 47 | 23 | 1.0 | 5.0 | 0.26 | 1.63 | 0.44 | 96 | 1011.8 |
| 20260505005517 | 47 | 0 | 1.0 | 4.0 | 0.28 | 1.61 | 0.42 | 96 | 1012.0 |
| 20260505004517 | 47 | 315 | 2.0 | 4.0 | 0.30 | 1.59 | 0.40 | 95 | 1012.0 |
| 20260505003517 | 47 | 203 | 2.0 | 4.0 | 0.31 | 1.56 | 0.37 | 95 | 1012.3 |
| 20260505002517 | 47 | 225 | 2.0 | 4.0 | 0.27 | 1.50 | 0.31 | 95 | 1012.4 |
| 20260505001517 | 47 | 225 | 4.0 | 6.0 | 0.22 | 1.44 | 0.25 | 94 | 1012.5 |
| 20260505000517 | 48 | 225 | 6.0 | 8.0 | 0.17 | 1.37 | 0.18 | 93 | 1012.8 |
| 20260504235517 | 48 | 203 | 6.0 | 10.0 | 0.13 | 1.32 | 0.13 | 91 | 1012.9 |
| 20260504234517 | 48 | 180 | 6.0 | 11.0 | 0.10 | 1.30 | 0.10 | 91 | 1012.9 |
| 20260504233517 | 48 | 180 | 5.0 | 8.0 | 0.06 | 1.26 | 0.06 | 91 | 1013.0 |
| 20260504232516 | 48 | 203 | 5.0 | 8.0 | 0.05 | 1.24 | 0.05 | 91 | 1012.8 |
| 20260504231517 | 48 | 225 | 5.0 | 8.0 | 0.03 | 1.24 | 0.03 | 92 | 1012.6 |
| 20260504230516 | 49 | 225 | 4.0 | 7.0 | 0.02 | 1.22 | 0.02 | 90 | 1012.7 |
| 20260504225516 | 49 | 225 | 4.0 | 9.0 | 0.01 | 1.21 | 0.01 | 88 | 1012.7 |
| 20260504224516 | 49 | 225 | 3.0 | 7.0 | 0.00 | 1.20 | 0.00 | 87 | 1012.8 |
| 20260504223516 | 49 | 203 | 5.0 | 9.0 | 0.00 | 1.20 | 0.00 | 87 | 1013.0 |
| 20260504222516 | 50 | 293 | 2.0 | 4.0 | 0.00 | 1.20 | 0.00 | 87 | 1012.9 |
| 20260504221516 | 51 | 225 | 6.0 | 11.0 | 0.00 | 1.20 | 0.00 | 82 | 1012.8 |
| 20260504220516 | 51 | 225 | 9.0 | 16.0 | 0.00 | 1.20 | 0.00 | 80 | 1012.7 |
| 20260504215517 | 51 | 225 | 9.0 | 22.0 | 0.00 | 1.20 | 1.20 | 81 | 1012.7 |
| 20260504214517 | 51 | 225 | 12.0 | 20.0 | 0.00 | 1.20 | 1.20 | 81 | 1012.8 |
| 20260504213517 | 49 | 225 | 8.0 | 14.0 | 0.00 | 1.20 | 1.20 | 86 | 1013.1 |
| 20260504212517 | 49 | 225 | 9.0 | 15.0 | 0.00 | 1.20 | 1.20 | 87 | 1012.9 |
| 20260504211517 | 49 | 225 | 8.0 | 15.0 | 0.00 | 1.20 | 1.20 | 88 | 1013.3 |
| 20260504210517 | 48 | 225 | 9.0 | 18.0 | 0.00 | 1.20 | 1.20 | 92 | 1013.4 |
| 20260504205517 | 48 | 225 | 7.0 | 10.0 | 0.00 | 1.20 | 1.20 | 93 | 1013.5 |
| 20260504204517 | 48 | 225 | 5.0 | 8.0 | 0.00 | 1.20 | 1.20 | 92 | 1013.6 |
| 20260504203517 | 48 | 225 | 4.0 | 9.0 | 0.00 | 1.20 | 1.20 | 92 | 1013.7 |
| 20260504202517 | 48 | 203 | 4.0 | 8.0 | 0.02 | 1.20 | 1.20 | 91 | 1013.7 |
| 20260504201517 | 48 | 180 | 4.0 | 9.0 | 0.03 | 1.20 | 1.20 | 93 | 1013.8 |
| 20260504200517 | 47 | 158 | 5.0 | 8.0 | 0.03 | 1.20 | 1.20 | 95 | 1013.6 |
| 20260504195517 | 47 | 113 | 2.0 | 7.0 | 0.04 | 1.20 | 1.20 | 96 | 1013.9 |
| 20260504194517 | 47 | 203 | 5.0 | 9.0 | 0.06 | 1.20 | 1.20 | 96 | 1014.0 |
| 20260504193517 | 47 | 203 | 3.0 | 7.0 | 0.07 | 1.20 | 1.20 | 97 | 1014.3 |
| 20260504192517 | 47 | 180 | 2.0 | 4.0 | 0.06 | 1.19 | 1.19 | 96 | 1014.3 |
| 20260504191517 | 48 | 0.0 | 2.0 | 0.05 | 1.17 | 1.17 | 96 | 1014.4 | |
| 20260504190517 | 48 | 0.0 | 2.0 | 0.06 | 1.17 | 1.17 | 96 | 1014.4 | |
| 20260504185516 | 48 | 158 | 1.0 | 4.0 | 0.06 | 1.17 | 1.17 | 96 | 1014.6 |
| 20260504184517 | 48 | 0.0 | 0.0 | 0.03 | 1.14 | 1.14 | 96 | 1014.6 | |
| 20260504183516 | 48 | 0.0 | 3.0 | 0.03 | 1.13 | 1.13 | 96 | 1014.4 | |
| 20260504182516 | 48 | 315 | 1.0 | 3.0 | 0.03 | 1.13 | 1.13 | 96 | 1014.5 |
| 20260504181516 | 48 | 315 | 1.0 | 2.0 | 0.06 | 1.13 | 1.13 | 96 | 1014.5 |
| 20260504180516 | 48 | 0.0 | 2.0 | 0.06 | 1.12 | 1.12 | 95 | 1014.4 | |
| 20260504175517 | 48 | 0.0 | 0.0 | 0.06 | 1.11 | 1.11 | 95 | 1014.5 | |
| 20260504174516 | 49 | 338 | 1.0 | 3.0 | 0.07 | 1.11 | 1.11 | 94 | 1014.4 |
| 20260504173516 | 48 | 23 | 1.0 | 2.0 | 0.07 | 1.10 | 1.10 | 93 | 1014.5 |
| 20260504172516 | 49 | 135 | 1.0 | 5.0 | 0.06 | 1.09 | 1.09 | 93 | 1014.4 |
| 20260504171516 | 49 | 203 | 1.0 | 3.0 | 0.04 | 1.07 | 1.07 | 93 | 1014.6 |
| 20260504170516 | 49 | 225 | 5.0 | 7.0 | 0.03 | 1.06 | 1.06 | 92 | 1014.8 |
| 20260504150516 | 49 | 225 | 3.0 | 8.0 | 0.07 | 1.00 | 1.00 | 96 | 1015.4 |
| 20260504140516 | 48 | 270 | 1.0 | 3.0 | 0.17 | 0.93 | 0.93 | 97 | 1016.0 |
| 20260504130516 | 48 | 0 | 1.0 | 3.0 | 0.24 | 0.76 | 0.76 | 96 | 1016.0 |
| 20260504110516 | 48 | 225 | 4.0 | 6.0 | 0.16 | 0.25 | 0.25 | 93 | 1015.6 |
| 20260504100516 | 49 | 180 | 5.0 | 10.0 | 0.08 | 0.09 | 0.09 | 89 | 1015.7 |
| 20260504081515 | 50 | 0.0 | 2.0 | 0.00 | 0.02 | 0.02 | 88 | 1015.1 | |
| 20260504080515 | 50 | 0.0 | 2.0 | 0.00 | 0.02 | 0.02 | 89 | 1015.1 |